When you browse on this site, cookies collect data to enhance your experience and personalize the content and advertising you see.
Visit our Privacy Policy to learn more. By continuing to use the site, you agree to this use of cookies and data.
  • In Sweden
  • List of Countries
  • For 7 days
  • Water Temperature
  • Weather Map
  • Weather Widgets
  • user-avatar
    Login

    Hourly Weather Ischgl

    Today, 25 May, Monday

    Time Temperature Precipitation Wind Pressure Humidity
    00:00 -2°C° 0 mm 1 mps 579 mmHg 90%
    01:00 -2°C° 0 mm 1 mps 578 mmHg 91%
    02:00 -2°C° 0 mm 1 mps 578 mmHg 91%
    03:00 -2°C° 0 mm 1 mps 578 mmHg 90%
    04:00 -2°C° 0 mm 1 mps 578 mmHg 90%
    05:00 -1°C° 0 mm 1 mps 579 mmHg 84%
    06:00 +1°C° 0 mm 1 mps 580 mmHg 79%
    07:00 +1°C° 0 mm 2 mps 580 mmHg 74%
    08:00 +2°C° 0 mm 2 mps 581 mmHg 69%
    09:00 +4°C° 0 mm 2 mps 582 mmHg 63%
    10:00 +5°C° 0 mm 2 mps 582 mmHg 58%
    11:00 +6°C° 0 mm 2 mps 582 mmHg 57%
    12:00 +5°C° 0 mm 3 mps 582 mmHg 56%
    13:00 +7°C° 0 mm 3 mps 582 mmHg 54%
    14:00 +7°C° 0 mm 3 mps 582 mmHg 55%
    15:00 +7°C° 0 mm 3 mps 582 mmHg 55%
    16:00 +7°C° 0 mm 3 mps 582 mmHg 55%
    17:00 +5°C° 0.1 mm 3 mps 581 mmHg 62%
    18:00 +4°C° 0.1 mm 3 mps 581 mmHg 69%
    19:00 +3°C° 0.1 mm 3 mps 580 mmHg 75%
    20:00 +2°C° 0.1 mm 2 mps 580 mmHg 82%
    21:00 +1°C° 0.1 mm 2 mps 580 mmHg 90%
    22:00 -1°C° 0.1 mm 2 mps 579 mmHg 97%
    23:00 -2°C° 0 mm 2 mps 579 mmHg 96%

    Tomorrow, 26 May, Tuesday

    Time Temperature Precipitation Wind Pressure Humidity
    00:00 -2°C° 0 mm 2 mps 579 mmHg 96%
    01:00 0°C° 0 mm 1 mps 579 mmHg 96%
    02:00 0°C° 0 mm 1 mps 579 mmHg 94%
    03:00 0°C° 0 mm 1 mps 579 mmHg 93%
    04:00 0°C° 0 mm 1 mps 579 mmHg 91%
    05:00 +1°C° 0 mm 1 mps 580 mmHg 86%
    06:00 +1°C° 0 mm 1 mps 580 mmHg 80%
    07:00 +2°C° 0 mm 1 mps 580 mmHg 75%
    08:00 +2°C° 0 mm 2 mps 581 mmHg 66%
    09:00 +4°C° 0 mm 2 mps 582 mmHg 57%
    10:00 +6°C° 0 mm 2 mps 583 mmHg 48%
    11:00 +5°C° 0 mm 3 mps 583 mmHg 45%
    12:00 +7°C° 0 mm 3 mps 583 mmHg 43%
    13:00 +8°C° 0 mm 3 mps 583 mmHg 41%
    14:00 +8°C° 0 mm 3 mps 583 mmHg 42%
    15:00 +8°C° 0 mm 3 mps 583 mmHg 44%
    16:00 +8°C° 0 mm 3 mps 583 mmHg 45%
    17:00 +7°C° 0 mm 3 mps 582 mmHg 52%
    18:00 +5°C° 0 mm 3 mps 582 mmHg 59%
    19:00 +3°C° 0 mm 3 mps 581 mmHg 65%
    20:00 +2°C° 0 mm 2 mps 581 mmHg 74%
    21:00 -1°C° 0 mm 2 mps 580 mmHg 83%
    22:00 0°C° 0 mm 1 mps 580 mmHg 92%
    23:00 -1°C° 0 mm 1 mps 579 mmHg 92%

    Day after tomorrow, 27 May, Wednesday

    Time Temperature Precipitation Wind Pressure Humidity
    00:00 -1°C° 0 mm 1 mps 579 mmHg 92%
    01:00 -1°C° 0 mm 1 mps 579 mmHg 92%
    02:00 -2°C° 0 mm 1 mps 579 mmHg 89%
    03:00 -2°C° 0 mm 1 mps 578 mmHg 86%
    04:00 -2°C° 0 mm 1 mps 578 mmHg 84%
    05:00 -1°C° 0 mm 1 mps 579 mmHg 73%
    06:00 +1°C° 0 mm 1 mps 580 mmHg 62%
    07:00 +3°C° 0 mm 1 mps 581 mmHg 51%
    08:00 +5°C° 0 mm 1 mps 582 mmHg 44%
    09:00 +6°C° 0 mm 1 mps 582 mmHg 38%
    10:00 +7°C° 0 mm 2 mps 583 mmHg 31%
    11:00 +8°C° 0 mm 2 mps 583 mmHg 30%
    12:00 +9°C° 0 mm 2 mps 584 mmHg 30%
    13:00 +10°C° 0 mm 2 mps 584 mmHg 29%
    14:00 +10°C° 0 mm 2 mps 584 mmHg 31%
    15:00 +10°C° 0 mm 3 mps 584 mmHg 34%
    16:00 +10°C° 0 mm 3 mps 583 mmHg 36%
    17:00 +8°C° 0 mm 3 mps 583 mmHg 46%
    18:00 +7°C° 0 mm 2 mps 582 mmHg 55%
    19:00 +6°C° 0 mm 2 mps 582 mmHg 65%
    20:00 +4°C° 0 mm 2 mps 581 mmHg 74%
    21:00 +3°C° 0 mm 1 mps 580 mmHg 84%
    22:00 +1°C° 0 mm 1 mps 579 mmHg 93%
    23:00 -1°C° 0 mm 0 mps 579 mmHg 93%

    28 May, Thursday

    Time Temperature Precipitation Wind Pressure Humidity
    00:00 -1°C° 0 mm 0 mps 578 mmHg 94%
    01:00 -1°C° 0 mm 0 mps 578 mmHg 94%
    02:00 -1°C° 0 mm 0 mps 578 mmHg 94%
    03:00 -2°C° 0 mm 0 mps 578 mmHg 93%
    04:00 -2°C° 0 mm 0 mps 577 mmHg 93%
    05:00 0°C° 0 mm 0 mps 578 mmHg 84%
    06:00 +3°C° 0 mm 1 mps 579 mmHg 75%
    07:00 +5°C° 0 mm 1 mps 580 mmHg 67%
    08:00 +6°C° 0 mm 1 mps 580 mmHg 57%
    09:00 +7°C° 0 mm 2 mps 581 mmHg 48%
    10:00 +8°C° 0 mm 2 mps 581 mmHg 38%
    11:00 +9°C° 0 mm 2 mps 581 mmHg 38%
    12:00 +10°C° 0 mm 2 mps 581 mmHg 38%
    13:00 +11°C° 0 mm 3 mps 581 mmHg 38%
    14:00 +10°C° 0 mm 3 mps 581 mmHg 42%
    15:00 +10°C° 0 mm 3 mps 580 mmHg 46%
    16:00 +10°C° 0 mm 3 mps 580 mmHg 51%
    17:00 +8°C° 0.4 mm 3 mps 579 mmHg 62%
    18:00 +7°C° 0.4 mm 3 mps 578 mmHg 73%
    19:00 +5°C° 0.4 mm 2 mps 578 mmHg 84%
    20:00 +4°C° 0.1 mm 2 mps 577 mmHg 88%
    21:00 +3°C° 0.1 mm 2 mps 577 mmHg 92%
    22:00 +3°C° 0.1 mm 1 mps 576 mmHg 96%
    23:00 +3°C° 0 mm 1 mps 576 mmHg 96%

    29 May, Friday

    Time Temperature Precipitation Wind Pressure Humidity
    00:00 +2°C° 0 mm 1 mps 576 mmHg 96%
    01:00 +2°C° 0 mm 1 mps 576 mmHg 97%
    02:00 +2°C° 0 mm 1 mps 575 mmHg 97%
    03:00 +2°C° 0 mm 1 mps 575 mmHg 96%
    04:00 +1°C° 0 mm 1 mps 575 mmHg 96%
    05:00 +2°C° 0 mm 1 mps 575 mmHg 92%
    06:00 +2°C° 0 mm 0 mps 575 mmHg 88%
    07:00 +3°C° 0 mm 0 mps 576 mmHg 84%
    08:00 +5°C° 0 mm 1 mps 576 mmHg 76%
    09:00 +7°C° 0 mm 1 mps 577 mmHg 67%
    10:00 +9°C° 0 mm 1 mps 578 mmHg 59%
    11:00 +8°C° 0.1 mm 2 mps 578 mmHg 58%
    12:00 +9°C° 0.1 mm 2 mps 577 mmHg 56%
    13:00 +9°C° 0.1 mm 2 mps 577 mmHg 55%
    14:00 +9°C° 0.2 mm 3 mps 577 mmHg 58%
    15:00 +9°C° 0.2 mm 3 mps 577 mmHg 60%
    16:00 +8°C° 0.2 mm 3 mps 577 mmHg 63%
    17:00 +7°C° 0.2 mm 3 mps 576 mmHg 68%
    18:00 +5°C° 0.2 mm 3 mps 576 mmHg 73%
    19:00 +5°C° 0.2 mm 2 mps 575 mmHg 78%
    20:00 +4°C° 0 mm 2 mps 575 mmHg 84%
    21:00 +4°C° 0 mm 1 mps 574 mmHg 90%
    22:00 +2°C° 0 mm 1 mps 574 mmHg 96%
    23:00 +2°C° 0 mm 1 mps 574 mmHg 96%

    30 May, Saturday

    Time Temperature Precipitation Wind Pressure Humidity
    00:00 +2°C° 0 mm 1 mps 573 mmHg 96%
    01:00 +1°C° 0 mm 1 mps 573 mmHg 96%
    02:00 +1°C° 0 mm 1 mps 573 mmHg 95%
    03:00 0°C° 0 mm 1 mps 572 mmHg 94%
    04:00 0°C° 0 mm 1 mps 572 mmHg 93%
    05:00 +1°C° 0 mm 1 mps 573 mmHg 87%
    06:00 +3°C° 0 mm 1 mps 574 mmHg 80%
    07:00 +4°C° 0 mm 1 mps 574 mmHg 73%
    08:00 +5°C° 0 mm 2 mps 575 mmHg 65%
    09:00 +6°C° 0 mm 2 mps 576 mmHg 56%
    10:00 +7°C° 0 mm 2 mps 576 mmHg 48%
    11:00 +8°C° 0 mm 2 mps 577 mmHg 45%
    12:00 +9°C° 0 mm 3 mps 577 mmHg 43%
    13:00 +9°C° 0 mm 3 mps 577 mmHg 41%
    14:00 +9°C° 0 mm 3 mps 577 mmHg 42%
    15:00 +9°C° 0 mm 3 mps 577 mmHg 44%
    16:00 +9°C° 0 mm 3 mps 577 mmHg 45%
    17:00 +8°C° 0 mm 3 mps 576 mmHg 52%
    18:00 +5°C° 0 mm 3 mps 576 mmHg 59%
    19:00 +5°C° 0 mm 2 mps 575 mmHg 66%
    20:00 +3°C° 0 mm 2 mps 575 mmHg 75%
    21:00 +3°C° 0 mm 1 mps 574 mmHg 83%
    22:00 0°C° 0 mm 0 mps 573 mmHg 92%
    23:00 -1°C° 0 mm 0 mps 573 mmHg 92%
    Show more